www.pogodaiklimat.ru

Погода и климат >> Архив погоды >> Индия >> Honavar


ПОГОДА в Honavar

  • Прогноз погоды в Honavar
  • Монитор погоды в Honavar
  • Климат города

АРХИВ ПОГОДЫ в Honavar

Время (UTC), дата Ветер
(напр.,м/с)
 
Видим.   Явления Облачность Т
(С)
Тd
(С)
f
(%)
Тe
(С)
Тes
(С)
Комфортность P
(гПа)
Po
(гПа)
Тmin
(С)
Tmax
(С)
R
(мм)
R24
(мм)
S
(см)
03 19.02 В 1 4000 м 1/0
[Ci fib]
+24.0 +21.9 88 +31 +35 очень
душно
1013.5 1010.5 +21.4 +31.6
06 19.02 В 1 10 км ясно +30.6 +21.7 59 +39 +59 опасность
солнечного
удара
1012.9 1010.0
09 19.02 З 1 10 км ясно +31.2 +22.1 58 +40 +56 опасность
солнечного
удара
1009.3 1006.4
12 19.02 З 1 10 км 3/3 600 м
[Sc]
+29.0 +23.2 71 +39 +40 очень
душно
1009.0 1006.1 +32.0
15 19.02 В 1 4000 м ясно +27.4 +24.2 83 +38 +38 очень
душно
1010.9 1008.0
18 19.02 В 1 4000 м 5/5 300 м
[Sc]
+24.4 +23.8 96 +33 +33 очень
душно
1011.8 1008.9
21 19.02 В 1 4000 м ясно +23.4 +22.8 96 +33 +33 очень
душно
1010.3 1007.3
00 20.02 В 1 4000 м ясно +22.6 +21.1 91 +30 +30 очень
душно
1010.8 1007.8
03 20.02 В 1 4000 м ясно +24.0 +21.9 88 +31 +36 очень
душно
1012.5 1009.5 +21.4 +32.0
06 20.02 З 1 10 км ясно +31.0 +22.2 60 +40 +60 опасность
солнечного
удара
1012.9 1010.0
09 20.02 З 1 10 км ясно +31.0 +22.2 60 +40 +56 опасность
солнечного
удара
1009.1 1006.2
12 20.02 З 1 10 км ясно +29.4 +24.2 74 +41 +42 опасность
перегрева
1008.9 1006.0 +33.6
15 20.02 З 1 4000 м ясно +27.4 +23.0 77 +37 +37 очень
душно
1010.4 1007.5
18 20.02 В 1 4000 м ясно +24.8 +22.7 88 +33 +33 очень
душно
1010.9 1008.0
21 20.02 В 1 4000 м ясно +22.4 +20.6 90 +29 +29 очень
душно
1009.0 1006.0
00 21.02 В 1 4000 м ясно +21.4 +19.8 91 +26 +26 душно 1009.1 1006.1
03 21.02 В 1 4000 м ясно +23.4 +19.7 80 +30 +35 очень
душно
1011.5 1008.5 +20.4 +33.6
06 21.02 З 1 10 км ясно +30.2 +19.5 53 +36 +56 опасность
солнечного
удара
1011.3 1008.4
09 21.02 штиль 0 50 км ?/? +30.6 +20.7 56 +38 +38 очень
душно
1007.9 1005.0
12 21.02 З 1 10 км ясно +30.0 +21.7 61 +38 +39 очень
душно
1007.3 1004.4 +31.9
15 21.02 З 1 4000 м ясно +27.4 +22.4 74 +36 +36 очень
душно
1008.9 1006.0
18 21.02 В 1 4000 м ясно +24.8 +22.7 88 +33 +33 очень
душно
1009.4 1006.5
21 21.02 В 1 4000 м ясно +22.4 +20.9 91 +29 +29 очень
душно
1008.5 1005.5
00 22.02 В 1 4000 м ясно +21.4 +19.8 91 +26 +26 душно 1008.5 1005.5
03 22.02 В 1 10 км ясно +22.6 +16.7 69 +27 +32 душно 1011.7 1008.7 +19.5 +31.9
09 22.02 З 1 10 км ясно +30.8 +21.3 57 +39 +55 опасность
солнечного
удара
1008.0 1005.1
12 22.02 З 1 10 км ясно +30.0 +22.7 65 +40 +41 очень
душно
1007.2 1004.3 +31.6
15 22.02 штиль 0 50 км ?/? +27.8 +23.7 78 +38 +38 очень
душно
1010.0 1007.1
18 22.02 В 1 4000 м ясно +24.0 +21.6 86 +31 +31 очень
душно
1010.7 1007.7
21 22.02 В 1 4000 м ясно +22.0 +20.5 91 +28 +28 душно 1009.6 1006.6
00 23.02 В 1 4000 м 3/3 600 м
[Sc]
+20.4 +18.2 87 +25 +25 комфорт 1009.6 1006.6
03 23.02 В 1 4000 м ясно +23.0 +17.5 71 +28 +33 душно 1011.5 1008.5 +19.5 +31.6
06 23.02 З 1 10 км ясно +31.0 +18.3 47 +36 +56 опасность
солнечного
удара
1011.5 1008.6
09 23.02 З 1 10 км ясно +31.0 +18.7 48 +36 +52 опасность
солнечного
удара
1008.2 1005.3
12 23.02 З 1 10 км ясно +30.6 +18.9 50 +36 +37 очень
душно
1007.8 1004.9 +31.9
15 23.02 В 1 4000 м ясно +27.4 +21.4 70 +35 +35 очень
душно
1009.5 1006.6
18 23.02 В 1 4000 м ясно +22.8 +18.4 76 +28 +28 душно 1010.4 1007.4
21 23.02 В 1 4000 м ясно +20.6 +18.0 85 +26 +26 душно 1010.2 1007.2
00 24.02 В 1 4000 м ясно +19.6 +16.3 81 +23 +23 комфорт 1010.4 1007.4
03 24.02 В 1 10 км ясно +24.0 +13.8 53 +26 +32 жарко 1013.2 1010.2 +19.1 +31.9
06 24.02 В 1 10 км ясно +33.0 +10.6 25 +32 +53 опасность
солнечного
удара
1012.7 1009.8
09 24.02 З 1 10 км ясно +31.6 +19.8 50 +38 +54 опасность
солнечного
удара
1009.4 1006.5
12 24.02 З 1 10 км ясно +30.0 +24.0 70 +41 +43 опасность
перегрева
1009.1 1006.2 +34.5
15 24.02 СВ 1 4000 м ясно +26.0 +23.1 84 +35 +35 очень
душно
1011.7 1008.8
18 24.02 В 1 4000 м ясно +22.4 +19.3 83 +28 +28 душно 1012.5 1009.5
21 24.02 В 1 4000 м ясно +20.0 +16.7 81 +24 +24 комфорт 1011.0 1008.0
00 25.02 В 1 4000 м ясно +19.0 +14.5 75 +21 +21 комфорт 1010.5 1007.5
03 25.02 В 1 4000 м ясно +25.0 +13.4 49 +27 +32 жарко 1013.3 1010.3 +18.0 +34.5
06 25.02 В 1 10 км ясно +33.0 +15.8 36 +36 +56 опасность
солнечного
удара
1012.8 1009.9
09 25.02 З 1 10 км ясно +32.2 +18.7 45 +37 +54 опасность
солнечного
удара
1009.8 1006.9
12 25.02 З 1 10 км ясно +30.6 +21.4 58 +39 +40 очень
душно
1009.4 1006.5 +35.3
15 25.02 В 1 4000 м ясно +27.4 +23.3 78 +37 +37 очень
душно
1011.3 1008.4
18 25.02 В 1 4000 м ясно +22.2 +20.3 89 +28 +28 душно 1012.8 1009.8
21 25.02 В 1 4000 м ясно +20.2 +18.3 89 +25 +25 комфорт 1011.6 1008.6

 

Местоположение метеостанции Honavar (Karnataka, Индия): широта 14.28 долгота 74.45 высота над уровнем моря 9 м.

В архиве по умолчанию представлена погода в Honavar за последнюю неделю. Архивные данные за месяц целиком и за предыдущие месяцы, начиная с января 2011 года, Вы можете получить, выбрав интересующий диапазон дат из раскрывающегося списка и нажав кнопку "Ввод!".

Внимание! Время в таблицах - всемирное. Для получения местного времени необходимо прибавить поправку, которая в Honavar равна 5.5 ч.

Смотрите также архив погоды в соседних городах и на ближайших метеорологических станциях:

Погода в Shirali (Karnataka, Индия) (25 км)
Погода в Karwar (Karnataka, Индия) (65 км)
Погода в Agumbe Emo (Karnataka, Индия) (110 км)
Погода в Haveri (Karnataka, Индия) (116 км)
Погода в Shimoga (Karnataka, Индия) (133 км)
Погода в Dharwad (Karnataka, Индия) (145 км)
Погода в Mormugao (Goa, Индия) (146 км)
Погода в Panjim (Goa, Индия) (150 км)
Погода в Mangalore (Karnataka, Индия) (154 км)
Погода в Mangalore Airport (Karnataka, Индия) (158 км)

Пояснения к столбцам:

Ветер - указаны скорость ветра в м/с - средняя за 10 мин, порывы в срок и между сроками (в фигурных скобках) и направление, откуда дует ветер: С - северный, СВ - северо-восточный, В - восточный, ЮВ - юго-восточный, Ю - южный, ЮЗ - юго-западный, З - западный, СЗ - северо-западный.
Видимость - горизонтальная дальность видимости в метрах или километрах. При видимости от 1 до 10 км при отсутствии осадков обычно наблюдается дымка, при ухудшении видимости до 1 км и менее - туман. В сухую погоду видимость может ухудшаться дымом, пылью или мглою.
Явления - указаны атмосферные явления, наблюдавшиеся в срок или в последний час перед сроком; фигурными скобками обозначены явления, наблюдавшиеся между сроками (за 1-3 часа до срока); квадратными скобками обозначены град или гололедные отложения с указанием их диаметра в мм.
Облачность - указаны через наклонную черту общая и нижняя облачность в баллах и высота нижней границы облаков в метрах; квадратными скобками обозначены формы облаков: Ci - перистые, Cs - перисто-слоистые, Cc - перисто-кучевые, Ac - высококучевые, As - высокослоистые, Sc - слоисто-кучевые, Ns - слоисто-дождевые, Cu - кучевые, Cb - кучево-дождевые. Подробнее классификацию облаков см. в Атласе облаков (PDF).
T - Температура воздуха - температура, измеренная на высоте 2 м над землей.
Td - Температура точки росы - температура, при понижении до которой содержащийся в воздухе водяной пар достигнет насыщения.
f - Относительная влажность воздуха - влажноcть воздуха, измеренная на высоте 2 м над землей.
Te - Эффективная температура - температура, которую ощущает одетый по сезону человек в тени. Характеристика душности погоды. При расчете учитывается влияние влажности воздуха и скорости ветра на теплоощущения человека.
Tes - Эффективная температура на солнце - температура, которую ощущает человек, с поправкой на солнечный нагрев. Характеристика знойности погоды. Зависит от высоты солнца над горизонтом, облачности и скорости ветра. Ночью, в пасмурную погоду, а также при ветре 12 м/с и более поправка равна нулю.
P - Атмосферное давление - приведенное к уровню моря атмосферное давление.
Po - Атмосферное давление - измеренное на уровне метеостанции атмосферное давление.
Tmin - Минимальная температура - минимум температуры воздуха на высоте 2 м над землей.
Tmax - Максимальная температура - максимум температуры воздуха на высоте 2 м над землей.
R - Количество осадков - Количество выпавших осадков за период времени, мм. При наведении курсора мыши на число - период времени, за который выпало указанное количество осадков.
R24 - Количество осадков - Количество выпавших осадков за 24 часа, мм.
S - Снежный покров - Высота снежного покрова, см. При наведении курсора мыши на число - состояние снежного покрова и степень покрытия местности в баллах.